Location: NJAA Observatory
(40.6819°N, 74.8979°W)
Time: 00:05:47
(UTC-04:00)

Cosmos 2263 Rocket - Visible Passes

Search period start: 01 November 2014 00:00
Search period end: 10 November 2014 23:00
Orbit: 825 x 848 km, 71.0° (Epoch: 31 October)

Date Brightness Start Highest point End Pass type
(mag) Time Alt. Az. Time Alt. Az. Time Alt. Az.
01 Nov 4.3 05:37:52 10° SSE 05:42:26 27° ESE 05:47:00 10° NE visible
02 Nov 4.4 04:21:27 10° SSE 04:25:51 25° ESE 04:30:15 10° NE visible
03 Nov 4.5 04:05:04 10° SSE 04:09:16 23° E 04:13:29 10° NE visible
03 Nov 2.4 05:47:28 10° SW 05:52:48 48° WNW 05:58:12 10° NNE visible
04 Nov 4.5 03:48:42 10° SSE 03:52:41 21° E 03:56:42 10° NE visible
04 Nov 2.3 05:30:46 10° SW 05:36:10 52° WNW 05:41:36 10° NNE visible
05 Nov 4.6 03:32:21 10° SE 03:36:07 19° E 03:39:53 10° ENE visible
05 Nov 2.2 05:14:05 10° SW 05:19:31 57° WNW 05:25:01 10° NNE visible
06 Nov 4.6 03:16:03 10° SE 03:19:33 17° E 03:23:03 10° ENE visible
06 Nov 2.1 04:57:24 10° SW 05:02:53 62° WNW 05:08:25 10° NNE visible
07 Nov 4.7 03:01:33 14° ESE 03:02:59 16° E 03:06:10 10° ENE visible
07 Nov 2.0 04:43:23 29° SW 04:46:15 67° WNW 04:51:48 10° NNE visible
08 Nov 4.8 02:47:00 14° E 02:47:00 14° E 02:49:15 10° ENE visible
08 Nov 2.0 04:28:48 62° WSW 04:29:37 73° WNW 04:35:12 10° NNE visible
09 Nov 5.1 02:32:02 11° ENE 02:32:02 11° ENE 02:32:15 10° ENE visible
09 Nov 2.2 04:13:49 65° N 04:13:49 65° N 04:18:35 10° NNE visible
09 Nov 3.9 05:55:35 11° WNW 05:57:52 13° NW 06:00:25 10° NNW visible
10 Nov 3.1 03:58:33 39° NNE 03:58:33 39° NNE 04:01:58 10° NNE visible
10 Nov 3.8 05:40:18 14° WNW 05:41:10 14° NW 05:44:02 10° NNW visible
